Weather History for Warsaw, IN

Change the Weather History Date:

Monday, December 9, 2013

  Actual Average Record
Temperature  
Mean Temperature 22 °F -  
Max Temperature 28 °F 38 °F 65 °F (1966)
Min Temperature 15 °F 24 °F -4 °F (1958)
Degree Days  
Heating Degree Days 44    
Moisture  
Dew Point 17 °F    
Average Humidity 78    
Maximum Humidity 93    
Minimum Humidity 62    
Precipitation  
Precipitation 0.00 in - - ()
Sea Level Pressure  
Sea Level Pressure 30.07 in    
Wind  
Wind Speed 11 mph (WSW)    
Max Wind Speed 20 mph    
Max Gust Speed 28 mph    
Visibility 8 miles    
Events Snow    
Averages and records for this station are not official NWS values.
T = Trace of Precipitation, MM = Missing Value Source: NWS Daily Summary

Daily Weather History Graph

Daily Weather History Graph

Search for Another Location

Airport:

Trip Planner

Search our weather history database for the weather conditions in past years. The results will help you decide how hot, cold, wet, or windy it might be!

Date:

Astronomy

Dec. 09, 2013 Rise Set
Actual Time 7:57 AM EST 5:14 PM EST
Civil Twilight 7:26 AM EST 5:45 PM EST
Nautical Twilight 6:51 AM EST 6:19 PM EST
Astronomical Twilight 6:18 AM EST 6:53 PM EST
Moon 12:46 PM EST (12/9) 12:06 AM EST (12/9)
Length of Visible Light 10h 18m
Length of Day
9h 16m
Waxing Crescent, 51% of the Moon is Illuminated
Dec 9
Waxing Crescent
Dec 17
Full
Dec 25
Last Quarter
Jan 1
New
Jan 7
First Quarter

Hourly Weather History & Observations

Time (EST) Temp. Windchill Dew Point Humidity Pressure Visibility Wind Dir Wind Speed Gust Speed Precip Events Conditions
12:15 AM 28.4 °F 23.3 °F 26.6 °F 93% 29.95 in 2.0 mi South 4.6 mph - N/A Snow Light Snow
12:35 AM 28.4 °F 23.3 °F 26.6 °F 93% 29.94 in 2.5 mi SSW 4.6 mph - N/A Snow Light Snow
12:55 AM 28.4 °F 24.6 °F 26.6 °F 93% 29.94 in 2.5 mi SSW 3.5 mph - N/A Snow Light Snow
1:15 AM 28.4 °F 23.3 °F 26.6 °F 93% 29.93 in 3.0 mi SSW 4.6 mph - N/A Snow Light Snow
1:35 AM 28.4 °F 21.2 °F 26.6 °F 93% 29.93 in 5.0 mi SW 6.9 mph - N/A   Overcast
1:55 AM 28.4 °F 20.4 °F 26.6 °F 93% 29.92 in 7.0 mi SW 8.1 mph - N/A   Overcast
2:15 AM 28.4 °F 17.5 °F 26.6 °F 93% 29.92 in 7.0 mi WSW 13.8 mph 18.4 mph N/A   Overcast
2:35 AM 28.4 °F 17.5 °F 26.6 °F 93% 29.93 in 5.0 mi WSW 13.8 mph - N/A Snow Light Snow
2:55 AM 28.4 °F 16.2 °F 26.6 °F 93% 29.93 in 7.0 mi WSW 17.3 mph 23.0 mph N/A   Overcast
3:15 AM 28.4 °F 17.5 °F 24.8 °F 86% 29.93 in 10.0 mi WSW 13.8 mph 18.4 mph N/A   Overcast
3:35 AM 28.4 °F 16.2 °F 24.8 °F 86% 29.94 in 10.0 mi WSW 17.3 mph 21.9 mph N/A   Overcast
3:55 AM 28.4 °F 16.6 °F 23.0 °F 80% 29.94 in 10.0 mi WSW 16.1 mph 23.0 mph N/A   Overcast
4:15 AM 28.4 °F 18.5 °F 23.0 °F 80% 29.94 in 10.0 mi WSW 11.5 mph 16.1 mph N/A   Overcast
4:35 AM 26.6 °F 15.7 °F 24.8 °F 93% 29.95 in 10.0 mi West 12.7 mph 20.7 mph N/A   Overcast
4:55 AM 26.6 °F 16.2 °F 23.0 °F 86% 29.95 in 7.0 mi West 11.5 mph 16.1 mph N/A   Overcast
5:15 AM 26.6 °F 15.7 °F 23.0 °F 86% 29.96 in 5.0 mi West 12.7 mph - N/A   Overcast
5:35 AM 26.6 °F 18.2 °F 23.0 °F 86% 29.95 in 7.0 mi West 8.1 mph 23.0 mph N/A   Overcast
5:55 AM 26.6 °F 14.3 °F 23.0 °F 86% 29.97 in 7.0 mi West 16.1 mph 19.6 mph N/A   Overcast
6:15 AM 26.6 °F 16.8 °F 23.0 °F 86% 29.98 in 7.0 mi WSW 10.4 mph 20.7 mph N/A   Overcast
6:35 AM 26.6 °F 15.2 °F 23.0 °F 86% 29.98 in 7.0 mi WSW 13.8 mph 18.4 mph N/A   Overcast
6:55 AM 26.6 °F 14.3 °F 21.2 °F 80% 29.98 in 10.0 mi WSW 16.1 mph 24.2 mph N/A   Overcast
7:15 AM 26.6 °F 15.2 °F 21.2 °F 80% 29.99 in 10.0 mi WSW 13.8 mph 23.0 mph N/A   Overcast
7:35 AM 26.6 °F 13.8 °F 21.2 °F 80% 29.99 in 10.0 mi WSW 17.3 mph 20.7 mph N/A   Overcast
7:55 AM 26.6 °F 15.2 °F 21.2 °F 80% 30.00 in 10.0 mi WSW 13.8 mph 19.6 mph N/A   Overcast
8:15 AM 24.8 °F 13.4 °F 21.2 °F 86% 30.01 in 10.0 mi West 12.7 mph 21.9 mph N/A   Overcast
8:35 AM 24.8 °F 13.4 °F 21.2 °F 86% 30.02 in 7.0 mi WSW 12.7 mph 20.7 mph N/A   Overcast
8:55 AM 24.8 °F 11.9 °F 19.4 °F 80% 30.03 in 7.0 mi West 16.1 mph 19.6 mph N/A   Overcast
9:15 AM 24.8 °F 11.5 °F 19.4 °F 80% 30.04 in 7.0 mi WSW 17.3 mph 21.9 mph N/A   Overcast
9:35 AM 24.8 °F 12.4 °F 19.4 °F 80% 30.06 in 7.0 mi West 15.0 mph 21.9 mph N/A   Overcast
9:55 AM 24.8 °F 15.3 °F 19.4 °F 80% 30.06 in 5.0 mi WSW 9.2 mph - N/A   Haze
10:15 AM 24.8 °F 13.4 °F 19.4 °F 80% 30.08 in 4.0 mi WSW 12.7 mph 21.9 mph N/A   Haze
10:35 AM 24.8 °F 12.4 °F 19.4 °F 80% 30.09 in 3.0 mi WSW 15.0 mph 20.7 mph N/A Snow Light Snow
10:55 AM 24.8 °F 14.0 °F 21.2 °F 86% 30.09 in 1.0 mi WSW 11.5 mph 18.4 mph N/A Snow Light Snow
11:15 AM 24.8 °F 12.4 °F 19.4 °F 80% 30.08 in 2.0 mi WSW 15.0 mph 20.7 mph N/A Snow Light Snow
11:35 AM 24.8 °F 14.0 °F 19.4 °F 80% 30.07 in 4.0 mi WSW 11.5 mph 17.3 mph N/A Snow Light Snow
11:55 AM 24.8 °F 13.4 °F 19.4 °F 80% 30.07 in 4.0 mi WSW 12.7 mph - N/A Snow Light Snow
12:15 PM 24.8 °F 11.9 °F 19.4 °F 80% 30.08 in 7.0 mi WSW 16.1 mph - N/A Snow Light Snow
12:35 PM 24.8 °F 12.9 °F 19.4 °F 80% 30.08 in 7.0 mi WSW 13.8 mph 19.6 mph N/A   Overcast
12:55 PM 24.8 °F 11.1 °F 17.6 °F 74% 30.10 in 10.0 mi WSW 18.4 mph 26.5 mph N/A   Overcast
1:15 PM 23.0 °F 8.3 °F 17.6 °F 80% 30.11 in 10.0 mi WSW 19.6 mph 25.3 mph N/A   Overcast
1:35 PM 23.0 °F 10.6 °F 17.6 °F 80% 30.12 in 7.0 mi WSW 13.8 mph 24.2 mph N/A   Overcast
1:55 PM 23.0 °F 8.3 °F 15.8 °F 74% 30.12 in 7.0 mi West 19.6 mph 25.3 mph N/A Snow Light Snow
2:15 PM 23.0 °F 8.7 °F 14.0 °F 68% 30.13 in 10.0 mi West 18.4 mph 27.6 mph N/A   Overcast
2:35 PM 21.2 °F 6.8 °F 14.0 °F 74% 30.12 in 10.0 mi West 17.3 mph 27.6 mph N/A Snow Light Snow
2:55 PM 21.2 °F 6.4 °F 14.0 °F 74% 30.13 in 10.0 mi West 18.4 mph 25.3 mph N/A   Overcast
3:15 PM 21.2 °F 6.8 °F 14.0 °F 74% 30.13 in 10.0 mi West 17.3 mph 24.2 mph N/A   Overcast
3:35 PM 21.2 °F 7.8 °F 14.0 °F 74% 30.13 in 10.0 mi West 15.0 mph 24.2 mph N/A   Overcast
3:55 PM 21.2 °F 7.3 °F 14.0 °F 74% 30.14 in 10.0 mi WSW 16.1 mph 21.9 mph N/A   Mostly Cloudy
4:15 PM 21.2 °F 8.3 °F 14.0 °F 74% 30.15 in 10.0 mi West 13.8 mph 20.7 mph N/A   Overcast
4:35 PM 21.2 °F 9.5 °F 14.0 °F 74% 30.15 in 10.0 mi West 11.5 mph 21.9 mph N/A   Mostly Cloudy
4:55 PM 21.2 °F 7.8 °F 12.2 °F 68% 30.15 in 10.0 mi West 15.0 mph 20.7 mph N/A   Scattered Clouds
5:15 PM 19.4 °F 6.6 °F 12.2 °F 74% 30.15 in 10.0 mi West 12.7 mph 18.4 mph N/A   Scattered Clouds
5:35 PM 19.4 °F 7.2 °F 12.2 °F 74% 30.15 in 10.0 mi West 11.5 mph 16.1 mph N/A   Clear
5:55 PM 19.4 °F 7.2 °F 10.4 °F 68% 30.15 in 10.0 mi West 11.5 mph 18.4 mph N/A   Clear
6:15 PM 19.4 °F 7.2 °F 10.4 °F 68% 30.16 in 10.0 mi West 11.5 mph - N/A   Clear
6:35 PM 19.4 °F 6.6 °F 10.4 °F 68% 30.16 in 10.0 mi WSW 12.7 mph 16.1 mph N/A   Clear
6:55 PM 19.4 °F 7.9 °F 10.4 °F 68% 30.17 in 10.0 mi WSW 10.4 mph - N/A   Clear
7:15 PM 19.4 °F 7.2 °F 10.4 °F 68% 30.18 in 10.0 mi WSW 11.5 mph 17.3 mph N/A   Clear
7:35 PM 19.4 °F 8.6 °F 10.4 °F 68% 30.18 in 10.0 mi WSW 9.2 mph - N/A   Scattered Clouds
7:55 PM 19.4 °F 7.2 °F 10.4 °F 68% 30.18 in 10.0 mi WSW 11.5 mph - N/A   Scattered Clouds
8:15 PM 19.4 °F 6.6 °F 10.4 °F 68% 30.18 in 10.0 mi West 12.7 mph 18.4 mph N/A   Scattered Clouds
8:35 PM 19.4 °F 7.2 °F 10.4 °F 68% 30.18 in 10.0 mi West 11.5 mph - N/A   Mostly Cloudy
8:55 PM 17.6 °F 5.7 °F 10.4 °F 73% 30.18 in 10.0 mi West 10.4 mph - N/A   Mostly Cloudy
9:15 PM 17.6 °F 4.3 °F 10.4 °F 73% 30.18 in 10.0 mi West 12.7 mph 18.4 mph N/A   Mostly Cloudy
9:35 PM 17.6 °F 3.7 °F 8.6 °F 68% 30.18 in 10.0 mi West 13.8 mph 19.6 mph N/A   Overcast
9:55 PM 17.6 °F 3.7 °F 8.6 °F 68% 30.18 in 10.0 mi WSW 13.8 mph 20.7 mph N/A   Overcast
10:15 PM 17.6 °F 4.3 °F 6.8 °F 63% 30.18 in 10.0 mi West 12.7 mph 20.7 mph N/A   Overcast
10:35 PM 17.6 °F 2.7 °F 6.8 °F 63% 30.17 in 10.0 mi West 16.1 mph - N/A   Overcast
10:55 PM 15.8 °F 1.4 °F 5.0 °F 62% 30.17 in 10.0 mi West 13.8 mph - N/A   Mostly Cloudy
11:15 PM 15.8 °F 5.1 °F 5.0 °F 62% 30.17 in 10.0 mi West 8.1 mph - N/A   Scattered Clouds
11:35 PM 15.8 °F 4.2 °F 6.8 °F 68% 30.17 in 10.0 mi West 9.2 mph - N/A   Clear
11:55 PM 15.8 °F 5.1 °F 5.0 °F 62% 30.17 in 10.0 mi West 8.1 mph - N/A   Clear